Location: ?ern� Novina
(50.6762°N, 14.8696°E)
Time: 01:20:34
(UTC+00:00)

MetOp-A - Pass Details

Date: 03 March 2021
Orbit: 819 x 821 km, 98.5° (Epoch: 13 April)

Event Time Altitude Azimuth Distance (km) Brightness Sun altitude
Rises 17:46:11 0° 142° (SE) 3,345 6.9 -10.4°
Reaches altitude 10° 17:48:37 10° 136° (SE) 2,417 6.2 -10.8°
Maximum altitude 17:53:39 44° 66° (ENE) 1,132 4.5 -11.6°
Drops below altitude 10° 17:58:43 10° 356° (N) 2,432 6.7 -12.4°
Sets 18:01:10 0° 350° (N) 3,369 7.5 -12.8°
